SCP
0 0 0 0 0 0 0 0 0 0 0 0 0 0 0 0 0 0 0 0 0 0 0 0 0 0 0 0 0 0 0 0 0 0 0 0 0 0 0 0 0 0 0
0 0 0 0 0 0 0 0 0 0 0 0 0 0 0 0 0 0 0 0 0 0 0 0 0 0 0 0 0 0 0 0 0 0 0 0 0 0 0 0 0 0 0
0 0 0 0 0 0 0 0 0 0 0 0 0 0 0 0 0 0 0 0 0 0 0 0 0 0 0 0 0 0 0 0 0 0 0 0 0 0 0 0 0 0 0
0 0 0 0 0 0 0 0 0 0 0 0 0 0 0 0 0 0 0 0 0 0 0 0 0 0 0 0 0 0 0 0 0 -0 -0 0 0 0 0 0 0 0 0
0 0 0 0 0 0 1 1 1 0 0 0 0 0 0 0 0 0 0 0 0 0 0 0 0 0 0 0 0 0 0 0 0 -0 0 0 0 0 0 0 0 0 0
0 0 0 0 0 0 1 1 1 1 1 1 0 0 0 0 0 0 0 0 0 0 0 0 0 0 0 0 0 0 0 0 0 0 0 0 0 0 0 0 0 0 0
0 0 0 0 0 0 0 1 1 1 1 1 1 0 0 0 0 0 0 0 0 0 0 0 0 0 0 0 0 0 0 0 0 0 0 0 0 0 0 0 0 0 0
0 0 0 0 0 0 0 0 1 1 1 1 1 1 0 0 0 0 0 0 0 0 0 0 0 0 0 0 0 0 0 0 0 0 0 0 0 0 0 0 0 0 0
0 0 0 0 0 0 0 0 0 1 1 1 1 1 0 0 0 0 0 0 0 0 0 0 0 0 0 0 0 0 0 0 0 0 0 0 0 0 0 0 0 0 0
0 0 0 0 0 0 0 0 0 0 0 0 0 0 0 0 0 0 0 0 0 0 0 0 0 0 0 0 0 0 0 0 0 0 0 0 0 0 0 0 0 0 0
0 0 0 0 0 0 0 0 0 0 0 0 0 0 0 0 0 0 0 0 0 0 0 0 0 0 0 0 0 0 0 0 0 0 0 0 0 0 0 0 0 0 0
0 0 0 0 0 0 0 0 0 0 0 0 0 0 0 0 0 0 0 0 0 0 0 0 0 0 0 0 0 0 0 0 0 0 0 0 0 0 0 0 0 0 0
0 0 0 0 0 0 0 0 0 0 0 0 0 0 0 0 0 0 0 0 0 0 0 0 0 0 0 0 0 0 0 0 0 0 0 0 0 0 0 0 0 0 0
0 0 0 0 0 0 0 0 0 0 0 0 0 0 0 0 0 0 0 0 0 0 0 0 0 0 0 0 0 0 0 0 0 0 0 0 0 0 0 0 0 0 0
0 0 0 0 0 0 0 0 0 0 0 0 0 0 0 0 0 0 0 0 0 0 0 0 0 0 0 0 0 0 0 0 0 0 0 0 0 0 0 0 0 0 0
0 0 0 0 0 0 0 0 0 0 0 0 0 0 0 1 0 0 0 0 0 0 0 0 0 0 0 0 0 0 0 0 0 0 0 0 0 0 0 0 0 0 0
0 0 0 0 0 0 0 0 0 0 0 0 0 0 0 1 1 0 0 0 0 0 0 0 0 0 0 0 0 0 0 0 0 0 0 0 0 0 0 0 0 0 0
0 0 0 0 0 0 0 0 0 0 0 0 0 0 0 1 1 1 0 0 0 0 0 0 0 0 0 0 0 0 0 0 0 0 0 0 0 0 0 0 0 0 0
0 0 0 0 0 0 0 0 0 0 0 0 0 0 0 0 1 1 1 0 0 0 0 0 0 0 0 0 0 0 0 0 0 0 0 0 0 0 0 0 0 0 0
0 0 0 0 0 0 0 0 0 0 0 0 0 0 0 0 1 1 1 0 0 0 0 0 0 0 0 0 0 0 0 0 0 0 0 0 0 0 0 0 0 0 0
0 0 0 0 0 0 0 0 0 0 0 0 0 0 0 0 0 0 0 0 0 0 0 0 0 0 0 0 0 0 0 0 0 0 0 0 0 0 0 0 0 0 0
0 0 0 0 0 0 0 0 0 0 0 0 0 0 0 0 0 0 0 0 0 0 0 0 0 0 0 0 0 0 0 0 0 0 0 0 0 0 0 0 0 0 0
0 0 0 0 0 0 0 0 0 0 0 0 0 0 0 0 0 0 0 0 0 0 0 0 0 0 0 0 0 0 0 0 0 0 0 0 0 0 0 0 0 0 0
0 0 0 0 0 0 0 0 0 0 0 0 0 0 0 0 0 0 0 0 0 0 0 0 0 0 0 0 0 0 0 0 0 0 0 0 0 0 0 0 0 0 0
0 0 0 0 0 0 0 0 0 0 0 0 0 0 0 0 0 0 0 0 0 0 0 0 0 0 0 0 0 0 0 0 0 0 0 0 0 0 0 0 0 0 0
0 0 0 0 0 0 0 0 0 0 0 0 0 0 0 0 0 0 0 0 0 0 0 0 0 0 0 0 0 0 0 0 0 0 0 0 0 0 0 0 0 0 0
Wind_Speed
4 5 8 7 7 7 7 8 8 9 9 9 10 9 9 9 8 8 8 8 8 8 9 9 9 9 9 9 10 10 10 11 12 12 12 11 10 10 10 9 10 9 12
3 5 8 6 6 6 7 7 7 8 8 9 9 9 9 8 8 8 8 8 8 8 8 9 9 9 9 10 10 10 10 10 10 10 10 9 9 10 11 12 12 8 12
4 5 7 6 5 5 6 6 7 7 8 8 9 9 9 8 8 8 8 8 8 8 8 9 9 9 9 9 10 9 9 8 7 7 7 6 7 10 10 11 11 11 11
5 4 5 6 4 4 5 6 7 7 7 8 8 8 9 9 9 8 8 8 8 8 8 9 10 10 9 9 9 8 7 5 4 3 2 5 6 9 9 10 10 10 10
5 4 6 6 4 3 4 5 6 7 7 7 8 8 8 8 9 9 9 8 8 7 8 9 10 10 9 9 8 7 6 4 4 4 1 7 6 8 9 9 9 10 10
6 5 5 5 3 2 3 5 6 7 7 7 8 8 9 9 9 9 8 8 7 7 9 10 11 10 10 9 8 7 5 4 4 3 3 7 6 8 8 8 8 8 9
6 5 2 3 2 2 3 4 6 7 7 7 8 9 9 9 10 9 8 8 8 9 10 11 12 11 10 9 8 7 5 4 4 1 4 7 6 8 8 8 7 7 7
6 5 3 1 1 3 4 4 5 7 8 8 8 8 9 9 9 9 9 9 10 11 12 12 12 11 10 9 8 7 5 5 5 2 5 6 8 8 8 7 7 7 7
6 5 4 2 1 3 4 5 5 6 7 8 9 9 9 9 9 10 9 10 11 12 12 12 12 11 11 10 9 7 5 6 5 2 6 6 8 8 7 7 6 6 6
5 5 4 3 3 2 3 6 6 6 7 8 9 9 9 9 9 10 10 10 11 12 12 12 12 12 11 10 9 7 6 5 5 3 3 6 10 9 8 7 6 6 5
6 5 5 5 4 3 3 4 6 6 8 9 8 10 9 6 7 8 11 11 12 13 13 13 13 12 10 9 9 8 6 3 5 2 3 9 11 9 8 7 7 6 5
6 6 5 5 5 5 4 2 3 4 4 6 6 7 6 6 6 8 11 13 13 13 13 13 13 11 8 5 6 7 3 6 5 3 5 13 12 10 9 8 8 7 6
6 6 5 5 5 5 4 3 2 2 2 4 6 6 5 5 4 4 3 6 8 9 7 8 9 6 6 5 6 6 6 6 4 3 7 14 12 11 10 10 9 8 8
6 6 6 6 5 5 4 4 3 2 2 2 4 5 4 3 3 3 3 5 5 5 6 5 5 7 8 8 8 8 8 5 3 3 6 13 12 12 12 11 11 10 10
6 6 6 6 6 5 4 4 4 3 3 3 3 3 4 3 3 4 3 4 5 5 6 6 7 8 9 9 8 9 9 8 6 4 5 12 13 12 12 12 12 12 12
6 6 6 6 6 5 4 4 4 3 3 3 3 4 4 3 4 4 4 4 5 5 6 6 7 6 6 6 7 7 7 7 6 6 6 9 13 12 12 13 13 13 13
7 7 6 6 6 6 5 5 4 4 3 3 3 4 4 4 4 4 4 4 5 5 6 5 6 4 5 5 5 6 5 5 5 5 6 6 7 12 13 15 15 14 14
7 7 7 7 6 6 5 5 4 3 3 3 3 3 4 4 4 3 3 4 4 4 4 5 5 4 4 4 3 3 3 4 5 5 5 6 6 7 11 15 14 15 15
6 7 7 6 6 6 6 5 4 4 3 3 3 3 3 4 4 3 3 3 4 3 3 4 4 4 4 4 4 4 3 4 4 5 5 6 6 7 7 11 15 14 13
6 6 7 6 6 6 5 4 3 3 3 2 2 2 3 2 2 3 3 4 4 4 4 4 4 4 3 4 4 4 4 4 4 5 6 5 5 7 7 7 8 10 14
7 7 7 7 6 5 4 3 3 3 2 2 2 2 2 2 2 2 2 3 3 4 5 5 4 5 4 3 2 2 4 5 6 5 5 5 6 7 7 7 7 6 7
8 7 7 7 6 5 4 3 3 3 2 1 1 2 2 2 2 2 2 2 3 3 4 5 4 3 4 4 4 3 3 4 6 7 6 6 6 5 7 8 8 8 6
7 8 7 7 7 6 5 3 3 2 1 2 3 3 3 3 3 3 2 2 2 2 3 5 5 6 5 5 5 4 4 5 3 4 8 7 6 5 6 6 8 8 8
7 7 7 7 7 7 5 3 3 2 2 2 2 2 3 4 4 4 3 2 2 1 2 3 4 4 4 4 5 5 4 3 3 3 4 7 8 8 7 6 7 8 8
7 7 6 7 7 8 7 5 3 2 2 2 3 4 4 4 5 5 4 3 3 2 2 2 2 2 3 4 4 4 5 5 4 3 3 4 4 5 6 6 6 6 7
7 6 6 7 7 7 7 7 5 4 4 4 4 4 4 3 4 6 5 4 3 3 2 2 2 3 3 4 4 4 4 4 4 5 5 4 4 4 5 5 5 6 6
Wind_Direction
31 97 128 138 145 145 148 150 150 150 150 152 154 153 152 147 144 141 138 138 138 137 133 130 127 123 116 109 101 98 95 90 92 90 84 80 81 79 73 79 83 76 79
23 98 125 129 147 151 152 152 153 155 157 159 161 162 162 159 157 157 155 154 153 151 146 140 135 128 119 114 109 107 105 102 103 103 98 82 76 76 71 70 81 85 82
26 93 128 128 137 149 153 156 160 161 163 166 167 170 170 168 168 169 168 166 166 163 157 148 141 130 124 120 115 114 116 122 131 139 133 113 94 85 82 81 85 87 85
26 72 114 121 136 149 160 163 168 170 172 175 176 178 178 178 180 181 180 175 175 169 160 149 139 133 129 127 125 125 131 147 171 204 192 125 105 98 93 90 89 88 85
21 48 103 124 132 149 167 173 179 180 180 182 183 185 185 186 190 191 189 183 181 169 158 149 144 140 138 138 137 139 150 185 230 256 129 101 99 110 102 97 96 93 89
16 32 105 129 142 159 175 188 191 194 191 189 189 191 192 194 199 198 193 186 182 172 162 156 151 148 147 148 149 153 172 221 268 252 125 110 108 116 111 106 103 99 96
11 14 72 118 158 188 200 202 204 205 205 202 200 199 200 203 206 203 196 188 181 176 169 164 159 157 157 159 159 166 191 243 268 271 105 105 118 126 122 117 112 107 102
2 4 19 100 189 209 218 217 212 214 215 212 209 208 208 210 211 208 199 191 184 182 177 173 168 166 167 170 170 177 202 253 269 196 111 112 132 133 133 128 121 114 109
355 357 353 342 280 230 229 228 220 218 221 219 214 213 212 212 213 211 203 196 190 187 183 179 175 175 176 176 177 183 207 247 287 267 131 126 142 143 141 138 136 131 124
349 354 348 336 327 295 239 233 226 224 222 222 220 218 216 217 216 214 207 201 195 191 186 182 182 182 181 179 179 186 209 251 264 249 130 143 154 158 159 158 157 153 147
347 345 340 338 336 318 280 239 220 225 225 223 222 222 218 217 214 211 210 202 196 192 189 186 187 185 181 181 182 188 201 238 244 215 137 151 163 170 175 176 176 173 170
336 335 337 338 333 321 306 284 233 227 220 219 222 214 211 214 213 213 207 198 195 192 191 190 189 185 178 181 187 188 210 233 238 188 153 160 171 181 187 191 193 192 190
324 325 330 330 321 313 308 292 259 245 228 222 230 219 207 209 208 210 185 184 190 191 192 194 187 188 192 192 183 193 217 229 219 185 163 168 178 191 197 199 202 205 205
313 313 319 323 313 303 300 295 280 259 243 235 231 233 212 205 204 200 185 179 182 187 189 186 188 198 203 204 192 194 210 222 215 181 170 174 182 197 204 205 208 212 215
309 307 309 307 303 303 298 288 284 269 254 246 237 235 222 206 208 206 195 186 188 188 189 190 194 201 205 210 205 200 204 209 210 191 167 181 184 197 209 213 216 217 220
309 305 303 300 297 297 293 282 274 269 263 253 246 238 224 208 205 203 202 197 195 195 196 195 198 203 206 207 210 208 206 203 208 189 167 188 193 197 209 217 222 223 223
310 308 303 297 291 288 286 281 277 262 254 253 246 242 233 215 209 207 203 204 201 196 195 193 198 201 208 210 212 215 211 210 210 200 176 178 192 205 210 218 224 227 229
321 316 312 308 307 298 291 285 283 275 264 257 255 255 245 228 214 208 209 213 205 197 192 191 194 197 205 207 211 219 218 215 221 214 193 183 184 194 210 218 222 226 229
324 319 314 310 308 307 300 290 283 275 268 262 257 257 258 244 223 209 210 211 201 194 197 200 198 193 197 203 210 218 223 225 221 222 217 201 193 190 191 210 216 220 223
328 324 321 318 315 310 303 295 289 276 270 263 259 264 274 273 252 223 211 213 205 198 199 199 200 196 196 195 213 224 223 225 227 227 224 214 204 198 194 195 203 218 221
349 341 333 326 321 319 315 307 289 280 281 286 285 290 296 299 291 261 241 221 216 208 206 204 198 201 207 184 190 235 247 237 234 227 224 219 212 205 199 198 194 198 210
348 343 338 333 328 326 316 302 285 279 274 288 319 316 315 316 316 295 266 237 220 212 211 209 203 203 207 186 180 181 227 237 238 231 223 223 221 209 205 202 196 198 196
350 344 340 338 335 328 319 318 325 334 342 0 1 353 348 350 352 345 325 295 253 220 218 214 205 207 212 204 193 180 190 215 220 226 221 220 219 216 213 205 203 201 199
347 341 341 344 346 348 346 357 2 359 353 346 343 350 354 4 7 1 349 339 314 279 249 236 222 220 213 219 217 219 218 195 192 223 229 218 216 219 218 211 208 206 202
349 347 347 352 358 0 2 6 3 2 355 358 2 8 8 10 14 12 1 357 346 333 309 277 261 244 230 227 221 220 234 242 230 210 232 226 222 220 219 217 212 210 206
357 355 356 360 4 5 9 14 19 19 16 19 11 13 15 13 13 13 7 6 357 347 327 295 264 250 248 246 239 227 218 219 215 216 226 227 226 227 222 220 218 215 208